STARLINK-32037, 60283

Orbit data source: Space-Track

STARLINK-32037, 60283 is a payload satellite owned by SpaceX/Seattle (US) in LEO that was launched on Sun, 28 Jul 2024 UTC via an FALCON 9 launch vehicle from the Air Force Eastern Test Range (AFETR). Payloads include a variety of satellites, spacecraft, and rockets equipped with specific instruments for various scientific and technological missions. These include communications satellites like Starlink; space stations such as the ISS; scientific satellites like the Hubble; Earth observation satellites from companies like Planet Labs, Umbra, and HawkEye 360; GPS; miniature CubeSats for education and research; and military/defense satellites.

Loading next visibility...
STARLINK-32037 details
Identifier
60283, 2024-132F
Orbit
LEO
Last TLE update15 hours ago
Origin
Flag of USSpaceX/Seattle (US)
ManufacturerSpaceX/Seattle
MissionOperational spacecraft
Bus & MotorSTARLINK V2M, Unknown motor
Mass730 kg wet, ~700 kg dry
Launch date (UTC)
2024-07-28 (5 months ago)
Launch vehicle
FALCON 9
Launch site
Air Force Eastern Test Range (AFETR)
Object type
Payload
Rocket body
Debris
Shape & HBRUnknown
Radar Cross SectionLarge (>1 m²)

Expand to show TLE details & history

TLE from 15 hours ago
0 STARLINK-32037
1 60283U 24132F   24355.90577828  .00003089  00000-0  11639-3 0  9999
2 60283  53.1619 313.8627 0001139 101.3616 258.7513 15.30198986 23611
Epoch: 2024-12-20T21:44Z
Definitive object data (Epoch: 2024-12-20T21:44:19.243Z)
Latitude-0°
Longitude-102.18206°
Altitude476.27 km
Speed7.629 km/s
True Right ascension20h 55m 27s
True Declination0° 00' 00"
Sunlit
Object was in daylight at TLE epoch
Visualization TLE readout
Latitude10.50127°
Longitude67.00884°
Altitude475.002 km
Speed7.631 km/s
Apparent Right ascension05h 07m 34s
Apparent Declination-28° 11' 53"
Sunlit
Object is in full shadow
Visualization observer readout
Local Sidereal Time11:36:10
Azimuth251.532° W
Elevation-22.787°
Doppler factor1
Orbital elements
Apogee altitude476.255 km
Perigee altitude474.694 km
Semi-major axis6,853.611 km
Eccentricity0.0001139
Inclination53.1619°
RAAN313.8627°
Arg. of periapsis101.3616°
True anomaly258.7385°
Mean anomaly258.7513°
Eccentric anomaly258.7449°
Mean motion3.82529 °/min
BSTAR0.00011639
Orbital period94.11 mins
Loading maneuver chart data...
Loading historical data...
Loading historical data...
Loading historical data...
Loading historical data...
Loading historical data...
Loading historical data...
Loading historical data...

STARLINK-32037 Visibility forecast

Observer location: undefined°, undefined

Span
Click to sort rows by Start time (UTC) header in descending order
Start Az.
Max El. time (UTC)
Max El. Az.
Max El.
End time (UTC)
End Az.
5 mins2024-12-21 22:58:20.685Z174.131° S2024-12-21 23:00:20.685Z138.154° SSE19.062°2024-12-21 23:03:20.685Z81.321° E
5 mins2024-12-22 00:36:20.685Z260.757° W2024-12-22 00:38:20.685Z322.18° NNW35.782°2024-12-22 00:41:20.685Z37.007° NE
4 mins2024-12-22 05:33:20.685Z343.997° N2024-12-22 05:35:20.685Z28.658° NE22.047°2024-12-22 05:37:20.685Z71.668° E
5 mins2024-12-22 07:11:20.685Z292.824° NW2024-12-22 07:13:20.685Z226.977° WSW38.583°2024-12-22 07:16:20.685Z149.647° SSE
|